| time (UTC) | temp F | wind direction | speed MPH | gust MPH | rain 1hr in | rain 24hr in | rain mn in | humidity % | barometer mb |
| 20260503212016 | 72 | 293 | 10.0 | 16.0 | 0.00 | 0.00 | 0.00 | 25 | 1005.9 |
| 20260503211016 | 72 | 315 | 11.0 | 18.0 | 0.00 | 0.00 | 0.00 | 24 | 1006.0 |
| 20260503210016 | 71 | 315 | 10.0 | 16.0 | 0.00 | 0.00 | 0.00 | 27 | 1006.0 |
| 20260503205016 | 71 | 315 | 10.0 | 18.0 | 0.00 | 0.00 | 0.00 | 27 | 1006.2 |
| 20260503204036 | 71 | 315 | 12.0 | 20.0 | 0.00 | 0.00 | 0.00 | 28 | 1006.5 |
| 20260503203016 | 71 | 0 | 11.0 | 17.0 | 0.00 | 0.00 | 0.00 | 27 | 1006.5 |
| 20260503202016 | 71 | 0 | 11.0 | 19.0 | 0.00 | 0.00 | 0.00 | 26 | 1006.5 |
| 20260503201016 | 70 | 315 | 10.0 | 15.0 | 0.00 | 0.00 | 0.00 | 28 | 1006.8 |
| 20260503200016 | 71 | 338 | 11.0 | 18.0 | 0.00 | 0.00 | 0.00 | 26 | 1006.9 |
| 20260503195015 | 70 | 338 | 14.0 | 18.0 | 0.00 | 0.00 | 0.00 | 28 | 1007.2 |
| 20260503194016 | 70 | 0 | 12.0 | 18.0 | 0.00 | 0.00 | 0.00 | 28 | 1007.0 |
| 20260503193016 | 70 | 338 | 14.0 | 20.0 | 0.00 | 0.00 | 0.00 | 28 | 1007.1 |
| 20260503192015 | 70 | 315 | 12.0 | 18.0 | 0.00 | 0.00 | 0.00 | 29 | 1007.1 |
| 20260503191016 | 70 | 338 | 14.0 | 20.0 | 0.00 | 0.00 | 0.00 | 29 | 1007.1 |
| 20260503190015 | 70 | 338 | 9.0 | 16.0 | 0.00 | 0.00 | 0.00 | 30 | 1007.2 |
| 20260503185016 | 70 | 315 | 10.0 | 14.0 | 0.00 | 0.00 | 0.00 | 29 | 1007.4 |
| 20260503184036 | 69 | 338 | 14.0 | 19.0 | 0.00 | 0.00 | 0.00 | 29 | 1007.4 |
| 20260503183015 | 69 | 338 | 12.0 | 17.0 | 0.00 | 0.00 | 0.00 | 29 | 1007.5 |
| 20260503182016 | 68 | 338 | 14.0 | 21.0 | 0.00 | 0.00 | 0.00 | 28 | 1007.7 |
| 20260503181015 | 69 | 338 | 12.0 | 25.0 | 0.00 | 0.00 | 0.00 | 29 | 1007.8 |
| 20260503180016 | 69 | 338 | 11.0 | 16.0 | 0.00 | 0.00 | 0.00 | 32 | 1007.8 |
| 20260503175035 | 69 | 0 | 11.0 | 17.0 | 0.00 | 0.00 | 0.00 | 32 | 1007.9 |
| 20260503174015 | 68 | 315 | 12.0 | 20.0 | 0.00 | 0.00 | 0.00 | 32 | 1007.9 |
| 20260503173016 | 68 | 338 | 10.0 | 15.0 | 0.00 | 0.00 | 0.00 | 35 | 1008.1 |
| 20260503172015 | 68 | 338 | 11.0 | 15.0 | 0.00 | 0.00 | 0.00 | 34 | 1008.2 |
| 20260503171015 | 68 | 338 | 11.0 | 15.0 | 0.00 | 0.00 | 0.00 | 36 | 1008.2 |
| 20260503131017 | 54 | 0 | 6.0 | 9.0 | 0.00 | 0.00 | 0.00 | 57 | 1006.8 |
| 20260503081016 | 56 | 203 | 10.0 | 15.0 | 0.00 | 0.00 | 0.00 | 43 | 1006.6 |
| 20260503072016 | 57 | 158 | 8.0 | 12.0 | 0.00 | 0.00 | 0.00 | 43 | 1007.1 |
| 20260503071016 | 57 | 135 | 5.0 | 8.0 | 0.00 | 0.00 | 0.00 | 44 | 1007.3 |
| 20260503055016 | 60 | 225 | 8.0 | 13.0 | 0.00 | 0.00 | 0.00 | 38 | 1009.1 |
| 20260503054016 | 60 | 225 | 7.0 | 12.0 | 0.00 | 0.00 | 0.00 | 39 | 1009.4 |
| 20260503053016 | 60 | 225 | 8.0 | 12.0 | 0.00 | 0.00 | 0.00 | 39 | 1009.3 |
| 20260503052016 | 60 | 225 | 6.0 | 9.0 | 0.00 | 0.00 | 0.00 | 43 | 1009.2 |
| 20260503051056 | 60 | 225 | 5.0 | 8.0 | 0.00 | 0.00 | 0.00 | 41 | 1009.1 |
| 20260503050016 | 62 | 225 | 9.0 | 14.0 | 0.00 | 0.00 | 0.00 | 37 | 1009.3 |
| 20260503045017 | 61 | 225 | 6.0 | 10.0 | 0.00 | 0.00 | 0.00 | 39 | 1009.8 |
| 20260503044017 | 62 | 225 | 5.0 | 8.0 | 0.00 | 0.00 | 0.00 | 36 | 1010.2 |
| 20260503043017 | 62 | 225 | 10.0 | 14.0 | 0.00 | 0.00 | 0.00 | 35 | 1010.1 |
| 20260503042017 | 62 | 248 | 5.0 | 12.0 | 0.00 | 0.00 | 0.00 | 37 | 1009.9 |
| 20260503041057 | 61 | 225 | 7.0 | 12.0 | 0.00 | 0.00 | 0.00 | 39 | 1010.0 |
| 20260503040017 | 59 | 248 | 2.0 | 4.0 | 0.00 | 0.00 | 0.00 | 45 | 1010.1 |
| 20260503035017 | 58 | 270 | 2.0 | 4.0 | 0.00 | 0.00 | 0.00 | 47 | 1010.0 |
| 20260503034017 | 59 | 203 | 4.0 | 5.0 | 0.00 | 0.00 | 0.00 | 45 | 1010.0 |
| 20260503033017 | 61 | 203 | 5.0 | 7.0 | 0.00 | 0.00 | 0.00 | 42 | 1010.2 |
| 20260503032017 | 61 | 225 | 6.0 | 9.0 | 0.00 | 0.00 | 0.00 | 41 | 1010.5 |
| 20260503031017 | 60 | 248 | 5.0 | 11.0 | 0.00 | 0.00 | 0.00 | 42 | 1010.9 |
| 20260503030016 | 59 | 203 | 4.0 | 5.0 | 0.00 | 0.00 | 0.00 | 42 | 1010.8 |
| 20260503025037 | 60 | 203 | 4.0 | 6.0 | 0.00 | 0.00 | 0.00 | 41 | 1010.8 |
| 20260503024016 | 61 | 225 | 5.0 | 8.0 | 0.00 | 0.00 | 0.00 | 38 | 1011.0 |
| 20260503023017 | 61 | 180 | 5.0 | 7.0 | 0.00 | 0.00 | 0.00 | 39 | 1011.0 |
| 20260503022017 | 62 | 225 | 6.0 | 11.0 | 0.00 | 0.00 | 0.00 | 36 | 1011.1 |
| 20260503021016 | 62 | 248 | 9.0 | 15.0 | 0.00 | 0.00 | 0.00 | 37 | 1011.2 |
| 20260503020017 | 61 | 225 | 5.0 | 6.0 | 0.00 | 0.00 | 0.00 | 38 | 1011.4 |
| 20260503015016 | 62 | 248 | 3.0 | 6.0 | 0.00 | 0.00 | 0.00 | 37 | 1011.4 |
| 20260503014017 | 62 | 270 | 6.0 | 9.0 | 0.00 | 0.00 | 0.00 | 36 | 1011.6 |
| 20260503013037 | 63 | 270 | 5.0 | 8.0 | 0.00 | 0.00 | 0.00 | 35 | 1011.8 |
| 20260503012016 | 63 | 270 | 8.0 | 13.0 | 0.00 | 0.00 | 0.00 | 34 | 1011.7 |
| 20260503011016 | 64 | 270 | 9.0 | 15.0 | 0.00 | 0.00 | 0.00 | 33 | 1011.7 |
| 20260503010016 | 64 | 270 | 7.0 | 13.0 | 0.00 | 0.00 | 0.00 | 34 | 1011.6 |
| 20260503005016 | 64 | 270 | 6.0 | 11.0 | 0.00 | 0.00 | 0.00 | 35 | 1011.6 |
| 20260503004016 | 64 | 293 | 9.0 | 15.0 | 0.00 | 0.00 | 0.00 | 34 | 1011.6 |
| 20260503003016 | 65 | 293 | 8.0 | 15.0 | 0.00 | 0.00 | 0.00 | 32 | 1011.5 |
| 20260503002016 | 65 | 270 | 6.0 | 12.0 | 0.00 | 0.00 | 0.00 | 32 | 1011.5 |
| 20260503001016 | 65 | 270 | 7.0 | 13.0 | 0.00 | 0.00 | 0.00 | 31 | 1011.3 |
| 20260503000016 | 65 | 248 | 6.0 | 9.0 | 0.00 | 0.00 | 0.00 | 32 | 1011.3 |
| 20260502235016 | 65 | 248 | 4.0 | 7.0 | 0.00 | 0.00 | 0.00 | 32 | 1011.2 |
| 20260502234016 | 66 | 270 | 6.0 | 9.0 | 0.00 | 0.00 | 0.00 | 31 | 1011.2 |
| 20260502233036 | 66 | 270 | 6.0 | 10.0 | 0.00 | 0.00 | 0.00 | 31 | 1011.3 |
| 20260502232016 | 66 | 270 | 6.0 | 14.0 | 0.00 | 0.00 | 0.00 | 31 | 1011.4 |
| 20260502231016 | 66 | 270 | 5.0 | 9.0 | 0.00 | 0.00 | 0.00 | 31 | 1011.4 |
| 20260502230036 | 67 | 270 | 8.0 | 16.0 | 0.00 | 0.00 | 0.00 | 31 | 1011.5 |
| 20260502225016 | 67 | 248 | 9.0 | 14.0 | 0.00 | 0.00 | 0.00 | 31 | 1011.8 |
| 20260502224016 | 67 | 248 | 9.0 | 13.0 | 0.00 | 0.00 | 0.00 | 30 | 1011.9 |
| 20260502223016 | 67 | 225 | 11.0 | 16.0 | 0.00 | 0.00 | 0.00 | 30 | 1012.0 |
| 20260502222036 | 67 | 0 | 7.0 | 12.0 | 0.00 | 0.00 | 0.00 | 31 | 1012.2 |
| 20260502221016 | 68 | 225 | 8.0 | 12.0 | 0.00 | 0.00 | 0.00 | 29 | 1012.3 |
| 20260502220016 | 68 | 270 | 8.0 | 14.0 | 0.00 | 0.00 | 0.00 | 29 | 1012.6 |
| 20260502215016 | 69 | 270 | 9.0 | 19.0 | 0.00 | 0.00 | 0.00 | 31 | 1012.6 |
| 20260502214036 | 68 | 270 | 11.0 | 19.0 | 0.00 | 0.00 | 0.00 | 29 | 1012.8 |
| 20260502213036 | 68 | 270 | 9.0 | 15.0 | 0.00 | 0.00 | 0.00 | 30 | 1012.8 |